Palmdale, CA

5:39 AM PST on February 11, 2016 (GMT -0800)
Palmdale Af Plant 42

Weather History for KPMD - February, 2014

Change the Weather History Date:

Thursday, February 13, 2014

  Actual Average Record
Temperature  
Mean Temperature 66 °F 48 °F  
Max Temperature 84 °F 61 °F 84 °F (2014)
Min Temperature 47 °F 35 °F 18 °F (1948)
Degree Days  
Heating Degree Days 0 17  
Month to date heating degree days 182 231  
Since 1 July heating degree days 1773 2015  
Cooling Degree Days 1 0  
Month to date cooling degree days 1 0  
Year to date cooling degree days 1 0  
Growing Degree Days 15 (Base 50)    
Moisture  
Dew Point 14 °F    
Average Humidity 22    
Maximum Humidity 37    
Minimum Humidity 6    
Precipitation  
Precipitation 0.00 in 0.07 in 1.23 in (2001)
Month to date precipitation T 0.76  
Year to date precipitation T 2.33  
Since 1 July precipitation 2.07  
Snow  
Snow 0.00 in - 0.00 in (1974)
Month to date snowfall 0.0  
Since 1 July snowfall 0.0  
Snow Depth 0.00 in    
Sea Level Pressure  
Sea Level Pressure 30.07 in    
Wind  
Wind Speed 11 mph (West)    
Max Wind Speed 29 mph    
Max Gust Speed 32 mph    
Visibility 10 miles    
Events      
T = Trace of Precipitation, MM = Missing Value Source: NWS Daily Summary

Daily Weather History Graph

Daily Weather History Graph

Search for Another Location

Airport or City:

Trip Planner

Search our weather history database for the weather conditions in past years. The results will help you decide how hot, cold, wet, or windy it might be!

Date:

Astronomy

Feb. 13, 2014 Rise Set
Actual Time 6:39 AM PST 5:33 PM PST
Civil Twilight 6:13 AM PST 5:59 PM PST
Nautical Twilight 5:44 AM PST 6:29 PM PST
Astronomical Twilight 5:14 AM PST 6:58 PM PST
Moon 4:46 PM PST (2/13) 5:35 AM PST (2/13)
Length of Visible Light 11h 45m
Length of Day
10h 54m
Waxing Gibbous, 99% of the Moon is Illuminated
Feb 13
Waxing Gibbous
Feb 14
Full
Feb 22
Last Quarter
Mar 1
New
Mar 8
First Quarter

Hourly Weather History & Observations

Time (PST) Temp. Dew Point Humidity Pressure Visibility Wind Dir Wind Speed Gust Speed Precip Events Conditions
12:53 AM 50.0 °F 17.1 °F 27% 30.10 in 10.0 mi South 6.9 mph - N/A   Clear
1:53 AM 52.0 °F 18.0 °F 26% 30.08 in 10.0 mi SSW 8.1 mph - N/A   Clear
2:53 AM 53.1 °F 16.0 °F 23% 30.06 in 10.0 mi Variable 3.5 mph - N/A   Clear
3:53 AM 51.1 °F 17.1 °F 26% 30.07 in 10.0 mi Calm Calm - N/A   Clear
4:53 AM 53.1 °F 18.0 °F 25% 30.08 in 10.0 mi Calm Calm - N/A   Clear
5:53 AM 46.9 °F 21.0 °F 36% 30.10 in 10.0 mi SSW 10.4 mph - N/A   Clear
6:53 AM 46.9 °F 21.0 °F 36% 30.12 in 10.0 mi South 6.9 mph - N/A   Clear
7:53 AM 55.0 °F 24.1 °F 30% 30.12 in 10.0 mi WSW 4.6 mph - N/A   Clear
8:53 AM 66.9 °F 19.9 °F 17% 30.11 in 10.0 mi Calm Calm - N/A   Clear
9:53 AM 75.9 °F 16.0 °F 10% 30.09 in 10.0 mi WNW 16.1 mph - N/A   Clear
10:53 AM 79.0 °F 12.9 °F 8% 30.09 in 10.0 mi WNW 13.8 mph - N/A   Clear
11:53 AM 82.0 °F 9.0 °F 6% 30.06 in 10.0 mi WNW 18.4 mph - N/A   Clear
12:53 PM 82.9 °F 12.0 °F 7% 30.02 in 10.0 mi WNW 20.7 mph - N/A   Clear
1:53 PM 84.0 °F 14.0 °F 7% 30.01 in 10.0 mi WNW 24.2 mph - N/A   Clear
2:53 PM 82.9 °F 10.9 °F 7% 30.01 in 10.0 mi WNW 19.6 mph 28.8 mph N/A   Clear
3:53 PM 79.0 °F 15.1 °F 9% 30.04 in 10.0 mi West 27.6 mph - N/A   Clear
4:53 PM 73.9 °F 12.9 °F 10% 30.04 in 10.0 mi West 21.9 mph - N/A   Clear
5:53 PM 69.1 °F 9.0 °F 10% 30.05 in 10.0 mi West 13.8 mph - N/A   Clear
6:53 PM 66.0 °F 7.0 °F 10% 30.08 in 10.0 mi West 13.8 mph - N/A   Clear
7:53 PM 64.9 °F 9.0 °F 11% 30.08 in 10.0 mi WNW 11.5 mph - N/A   Clear
8:53 PM 64.0 °F 10.9 °F 13% 30.06 in 10.0 mi WSW 5.8 mph - N/A   Clear
9:53 PM 59.0 °F 10.0 °F 14% 30.07 in 10.0 mi West 10.4 mph - N/A   Clear
10:53 PM 55.9 °F 10.0 °F 16% 30.06 in 10.0 mi SSW 9.2 mph - N/A   Clear
11:53 PM 53.1 °F 10.0 °F 18% 30.06 in 10.0 mi Calm Calm - N/A   Clear